Location: Carabito
(9.8355°N, 67.9249°W)
Time: 23:13:22
(UTC+00:00)

Cosmos 1484 Rocket - Pass Details

Date: 23 May 2024
Orbit: 481 x 521 km, 97.6° (Epoch: 15 June)

Event Time Altitude Azimuth Distance (km) Brightness Sun altitude
Rises 08:27:54 0° 17° (NNE) 2,613 6.9 -23.7°
Reaches altitude 10° 08:30:00 10° 22° (NNE) 1,734 6.0 -23.3°
Maximum altitude 08:33:41 56° 101° (E) 616 3.2 -22.5°
Enters shadow 08:34:43 40° 156° (SSE) 769 3.4 -22.3°
